TimeCDT,TemperatureF,Dew PointF,Humidity,Sea Level PressureIn,VisibilityMPH,Wind Direction,Wind SpeedMPH,Gust SpeedMPH,PrecipitationIn,Events,Conditions,WindDirDegrees,DateUTC
12:15 AM,55.4,53.6,94,29.95,3.0,ENE,4.6,-,N/A,,Mostly Cloudy,70,2013-05-09 05:15:00
12:35 AM,55.4,53.6,94,29.94,1.5,ENE,6.9,-,N/A,,Overcast,70,2013-05-09 05:35:00
12:55 AM,55.4,53.6,94,29.95,0.2,NE,4.6,-,N/A,Fog,Fog,50,2013-05-09 05:55:00
1:35 AM,55.4,53.6,94,29.95,0.2,ENE,4.6,-,N/A,Fog,Fog,70,2013-05-09 06:35:00
1:55 AM,55.4,53.6,94,29.95,0.2,ENE,3.5,-,N/A,Fog,Fog,60,2013-05-09 06:55:00
2:15 AM,55.4,53.6,94,29.94,0.2,NNE,3.5,-,N/A,Fog,Fog,30,2013-05-09 07:15:00
2:35 AM,55.4,53.6,94,29.94,0.2,Calm,Calm,-,N/A,Fog,Fog,0,2013-05-09 07:35:00
2:55 AM,55.4,53.6,94,29.93,0.2,Calm,Calm,-,N/A,Fog,Fog,0,2013-05-09 07:55:00
3:15 AM,55.4,53.6,94,29.92,0.2,NE,4.6,-,N/A,Fog,Fog,50,2013-05-09 08:15:00
3:35 AM,55.4,53.6,94,29.92,0.2,ENE,3.5,-,N/A,Fog,Fog,70,2013-05-09 08:35:00
3:55 AM,55.4,53.6,94,29.92,0.2,NE,3.5,-,N/A,Fog,Fog,40,2013-05-09 08:55:00
4:35 AM,55.4,53.6,94,29.91,1.2,NNE,4.6,-,N/A,,Overcast,20,2013-05-09 09:35:00
5:15 AM,55.4,53.6,94,29.91,2.0,Calm,Calm,-,N/A,,Overcast,0,2013-05-09 10:15:00
6:15 AM,53.6,51.8,94,29.92,1.8,NNE,3.5,-,N/A,,Mist,20,2013-05-09 11:15:00
6:35 AM,53.6,53.6,100,29.92,1.5,NNE,3.5,-,N/A,,Overcast,30,2013-05-09 11:35:00
7:55 AM,55.4,53.6,94,29.94,3.0,NNE,5.8,-,N/A,,Overcast,20,2013-05-09 12:55:00
8:15 AM,55.4,53.6,94,29.94,4.0,North,3.5,-,N/A,,Overcast,10,2013-05-09 13:15:00
8:35 AM,57.2,53.6,88,29.94,4.0,NNE,5.8,-,N/A,,Overcast,20,2013-05-09 13:35:00
9:55 AM,57.2,55.4,94,29.95,7.0,Calm,Calm,-,N/A,,Overcast,0,2013-05-09 14:55:00
10:35 AM,60.8,55.4,82,29.95,10.0,NNE,4.6,-,N/A,,Overcast,30,2013-05-09 15:35:00
10:55 AM,59.0,55.4,88,29.95,7.0,NNE,11.5,18.4,N/A,,Overcast,20,2013-05-09 15:55:00
11:15 AM,59.0,55.4,88,29.95,7.0,NNE,12.7,-,N/A,,Overcast,20,2013-05-09 16:15:00
11:35 AM,59.0,55.4,88,29.95,7.0,NNE,13.8,19.6,N/A,,Overcast,20,2013-05-09 16:35:00
12:15 PM,59.0,55.4,88,29.96,10.0,NNE,12.7,19.6,N/A,,Overcast,30,2013-05-09 17:15:00
12:35 PM,59.0,53.6,82,29.96,10.0,NE,12.7,18.4,N/A,,Overcast,40,2013-05-09 17:35:00
12:55 PM,57.2,53.6,88,29.97,10.0,NE,12.7,21.9,N/A,,Overcast,40,2013-05-09 17:55:00
1:15 PM,57.2,53.6,88,29.97,7.0,NE,16.1,20.7,N/A,,Overcast,40,2013-05-09 18:15:00
1:35 PM,57.2,53.6,88,29.97,4.0,NE,15.0,21.9,N/A,,Overcast,40,2013-05-09 18:35:00
1:55 PM,57.2,55.4,94,29.98,3.0,NNE,8.1,16.1,N/A,,Overcast,30,2013-05-09 18:55:00
2:15 PM,57.2,55.4,94,29.98,3.0,NNE,11.5,18.4,N/A,,Light Drizzle,20,2013-05-09 19:15:00
2:35 PM,57.2,55.4,94,29.98,4.0,NNE,15.0,19.6,N/A,Rain,Light Rain,30,2013-05-09 19:35:00
2:55 PM,57.2,55.4,94,29.97,4.0,NNE,10.4,-,N/A,Rain,Light Rain,30,2013-05-09 19:55:00
3:15 PM,57.2,55.4,94,29.97,5.0,NNE,10.4,-,N/A,Rain,Light Rain,30,2013-05-09 20:15:00
3:35 PM,57.2,55.4,94,29.97,7.0,NNE,11.5,-,N/A,Rain,Light Rain,20,2013-05-09 20:35:00
3:55 PM,59.0,53.6,82,29.97,7.0,NNE,12.7,20.7,N/A,Rain,Light Rain,30,2013-05-09 20:55:00
4:15 PM,59.0,53.6,82,29.97,10.0,NNE,12.7,21.9,N/A,,Overcast,30,2013-05-09 21:15:00
4:35 PM,60.8,53.6,77,29.97,10.0,NNE,11.5,19.6,N/A,,Overcast,30,2013-05-09 21:35:00
4:55 PM,60.8,55.4,82,29.97,10.0,NNE,11.5,-,N/A,,Overcast,30,2013-05-09 21:55:00
5:15 PM,60.8,53.6,77,29.97,10.0,NE,13.8,20.7,N/A,,Overcast,40,2013-05-09 22:15:00
5:35 PM,60.8,53.6,77,29.98,10.0,NNE,13.8,21.9,N/A,,Overcast,30,2013-05-09 22:35:00
5:55 PM,60.8,53.6,77,29.98,10.0,NNE,13.8,19.6,N/A,,Overcast,30,2013-05-09 22:55:00
6:15 PM,60.8,53.6,77,29.98,10.0,NNE,12.7,20.7,N/A,,Mostly Cloudy,20,2013-05-09 23:15:00
6:35 PM,60.8,53.6,77,29.99,10.0,NNE,8.1,18.4,N/A,,Mostly Cloudy,30,2013-05-09 23:35:00
6:55 PM,60.8,51.8,72,29.99,10.0,NNE,11.5,19.6,0.01,,Mostly Cloudy,20,2013-05-09 23:55:00
7:15 PM,60.8,51.8,72,30.00,10.0,NNE,12.7,17.3,N/A,,Scattered Clouds,30,2013-05-10 00:15:00
7:35 PM,59.0,53.6,82,30.00,10.0,NNE,10.4,-,N/A,,Mostly Cloudy,30,2013-05-10 00:35:00
7:55 PM,59.0,51.8,77,30.01,10.0,NNE,10.4,19.6,N/A,,Mostly Cloudy,30,2013-05-10 00:55:00
8:15 PM,57.2,51.8,82,30.01,10.0,NNE,11.5,-,N/A,,Mostly Cloudy,30,2013-05-10 01:15:00
8:35 PM,57.2,51.8,82,30.02,10.0,NE,13.8,19.6,N/A,,Overcast,40,2013-05-10 01:35:00
8:55 PM,57.2,51.8,82,30.02,10.0,NNE,9.2,-,N/A,,Overcast,30,2013-05-10 01:55:00
9:15 PM,55.4,51.8,88,30.03,10.0,NNE,8.1,-,N/A,,Overcast,30,2013-05-10 02:15:00
9:35 PM,55.4,50.0,82,30.03,10.0,NE,11.5,16.1,N/A,,Mostly Cloudy,40,2013-05-10 02:35:00
9:55 PM,53.6,50.0,88,30.03,10.0,NNE,9.2,-,N/A,,Scattered Clouds,30,2013-05-10 02:55:00
10:15 PM,53.6,48.2,82,30.04,10.0,NE,9.2,-,N/A,,Clear,40,2013-05-10 03:15:00
10:55 PM,51.8,48.2,88,30.05,10.0,NNE,8.1,-,N/A,,Clear,30,2013-05-10 03:55:00
11:15 PM,51.8,48.2,88,30.05,10.0,NNE,5.8,-,N/A,,Clear,30,2013-05-10 04:15:00
11:35 PM,51.8,48.2,88,30.05,10.0,NNE,9.2,-,N/A,,Clear,30,2013-05-10 04:35:00